Buffalo, NY

12:07 AM EST on December 16, 2019 (GMT -0500)
Buffalo Niagara International

Weather History for KBUF - November, 2019

Change the Weather History Date:

Thursday, November 14, 2019

  Actual Average Record
Temperature  
Mean Temperature 30 °F 41 °F  
Max Temperature 34 °F 48 °F 69 °F (1994)
Min Temperature 25 °F 35 °F 15 °F (1986)
Degree Days  
Heating Degree Days 35 24  
Month to date heating degree days 426 301  
Since 1 July heating degree days 860 906  
Cooling Degree Days 0 0  
Month to date cooling degree days 0 0  
Year to date cooling degree days 604 544  
Moisture  
Dew Point 24 °F    
Average Humidity 69    
Maximum Humidity 85    
Minimum Humidity 53    
Precipitation  
Precipitation 0.03 in 0.14 in 1.93 in (1871)
Month to date precipitation 1.67 1.84  
Year to date precipitation 42.15 34.42  
Snow  
Snow 0.10 in 0.30 in 9.50 in (1997)
Month to date snowfall 12.6 2.4  
Since 1 July snowfall 12.6 3.3  
Since 1 September snowfall 12.6 3.3  
Snow Depth 7.00 in    
Sea Level Pressure  
Sea Level Pressure 30.18 in    
Wind  
Wind Speed 9 mph (SW)    
Max Wind Speed 25 mph    
Max Gust Speed 29 mph    
Visibility 7 miles    
Events Snow    
T = Trace of Precipitation, MM = Missing Value Source: NWS Daily Summary

Daily Weather History Graph

Daily Weather History Graph

Search for Another Location

Airport or City:

Astronomy

Nov. 14, 2019 Rise Set
Actual Time 7:05 AM EST 4:52 PM EST
Civil Twilight 6:35 AM EST 5:23 PM EST
Nautical Twilight 6:00 AM EST 5:57 PM EST
Astronomical Twilight 5:27 AM EST 6:30 PM EST
Moon 6:34 PM EST (11/14) 9:00 AM EST (11/14)
Length of Visible Light 10h 47m
Length of Day
9h 46m
Waning Gibbous, 95% of the Moon is Illuminated
Nov 14
Waning Gibbous
Nov 19
Last Quarter
Nov 26
New
Dec 4
First Quarter
Dec 12
Full

Hourly Weather History & Observations

Time (EST) Temp. Windchill Dew Point Humidity Pressure Visibility Wind Dir Wind Speed Gust Speed Precip Events Conditions
12:54 AM 26.1 °F 20.5 °F 17.1 °F 69% 30.22 in 10.0 mi South 4.6 mph - N/A   Overcast
1:54 AM 27.0 °F 19.5 °F 17.1 °F 66% 30.21 in 10.0 mi South 6.9 mph - N/A   Overcast
2:54 AM 28.0 °F 20.0 °F 16.0 °F 61% 30.19 in 10.0 mi SSW 8.1 mph - N/A   Overcast
3:54 AM 30.0 °F 20.0 °F 16.0 °F 56% 30.17 in 10.0 mi SSW 12.7 mph - N/A   Overcast
4:54 AM 30.0 °F 19.1 °F 16.0 °F 56% 30.17 in 10.0 mi SSW 15.0 mph - N/A   Overcast
5:54 AM 28.0 °F 16.1 °F 21.9 °F 78% 30.18 in 10.0 mi SSW 16.1 mph - 0.00 in   Overcast
6:54 AM 28.0 °F 15.7 °F 23.0 °F 81% 30.18 in 7.0 mi SSW 17.3 mph - 0.00 in Snow Light Snow
7:09 AM 28.0 °F 16.1 °F 24.1 °F 85% 30.15 in 2.5 mi SSW 16.1 mph - 0.00 in Snow Light Snow
7:18 AM 28.0 °F 16.1 °F 24.1 °F 85% 30.15 in 1.5 mi SSW 16.1 mph - 0.00 in Snow Light Snow
7:24 AM 28.0 °F 15.3 °F 24.1 °F 85% 30.15 in 1.8 mi South 18.4 mph - 0.00 in Snow Light Snow
7:35 AM 28.0 °F 15.7 °F 24.1 °F 85% 30.14 in 2.0 mi South 17.3 mph - 0.00 in Snow Light Snow
7:54 AM 28.0 °F 15.7 °F 24.1 °F 85% 30.18 in 2.0 mi South 17.3 mph - 0.00 in Snow Light Snow
8:14 AM 28.0 °F 15.3 °F 24.1 °F 85% 30.15 in 4.0 mi South 18.4 mph - 0.00 in Snow Light Snow
8:54 AM 30.0 °F 19.1 °F 23.0 °F 75% 30.19 in 10.0 mi SSW 15.0 mph - 0.00 in   Overcast
9:54 AM 32.0 °F 20.5 °F 23.0 °F 69% 30.18 in 10.0 mi SSW 18.4 mph 24.2 mph N/A   Mostly Cloudy
10:54 AM 33.1 °F 23.0 °F 24.1 °F 70% 30.18 in 10.0 mi SSW 15.0 mph - N/A   Overcast
11:54 AM 33.1 °F 23.4 °F 24.1 °F 70% 30.18 in 10.0 mi SSW 13.8 mph - N/A   Overcast
1:54 PM 32.0 °F 27.5 °F 27.0 °F 82% 30.17 in 7.0 mi West 4.6 mph - 0.00 in Snow Light Snow
2:54 PM 32.0 °F - 27.0 °F 82% 30.18 in 6.0 mi Calm Calm - 0.00 in Snow Light Snow
3:36 PM 32.0 °F - 28.0 °F 85% 30.15 in 4.0 mi Calm Calm - 0.01 in Snow Light Snow
3:54 PM 32.0 °F 28.7 °F 28.0 °F 85% 30.19 in 2.5 mi SW 3.5 mph - 0.01 in Snow Light Snow
4:21 PM 32.0 °F 26.4 °F 28.0 °F 85% 30.16 in 3.0 mi WSW 5.8 mph - 0.01 in Snow Light Snow
4:25 PM 32.0 °F 26.4 °F 28.9 °F 88% 30.16 in 2.5 mi WSW 5.8 mph - 0.01 in Snow Light Snow
4:49 PM 32.0 °F 26.4 °F 28.4 °F 87% 30.16 in 4.0 mi SW 5.8 mph - 0.01 in Snow Light Snow
4:54 PM 32.0 °F 26.4 °F 28.0 °F 85% 30.19 in 5.0 mi SW 5.8 mph - 0.01 in Snow Light Snow
5:54 PM 33.1 °F 27.7 °F 27.0 °F 78% 30.21 in 6.0 mi West 5.8 mph - 0.00 in Snow Light Snow
6:54 PM 33.1 °F 28.7 °F 27.0 °F 78% 30.21 in 8.0 mi WSW 4.6 mph - 0.01 in Snow Light Snow
7:10 PM 33.1 °F 27.7 °F 27.0 °F 78% 30.18 in 7.0 mi WSW 5.8 mph - 0.00 in Snow Light Snow
7:54 PM 33.1 °F 27.7 °F 26.1 °F 75% 30.22 in 10.0 mi WSW 5.8 mph - 0.00 in   Overcast
8:54 PM 33.1 °F 26.9 °F 26.1 °F 75% 30.21 in 10.0 mi West 6.9 mph - N/A   Overcast
9:21 PM 33.1 °F 27.7 °F 26.1 °F 75% 30.18 in 10.0 mi WSW 5.8 mph - N/A   Overcast
10:54 PM 34.0 °F 27.2 °F 27.0 °F 75% 30.18 in 10.0 mi WSW 8.1 mph - N/A   Overcast
11:54 PM 34.0 °F 28.0 °F 27.0 °F 75% 30.17 in 10.0 mi WSW 6.9 mph - N/A   Overcast